Погода в Колке

Погода в Колке : погода сейчас, прогноз погоды и архив. Всё, что Вы хотите узнать о погоде в Колке!

Поиск расширенной информации на нашем сайте:

Другие новости

Новости СМИ2

Главная страница сайта

Новости сайта

02.10.2013

Напоминаем, что на нашем новом сайте вы можете получить высокодетализированные прогнозы погоды по пунктам России, СНГ и мира (включающие важные для авиации метеовеличины, такие как направление и скорость ветра, видимость, явления погоды, количество и форма облачности, нижняя и верхняя граница облачности), а также ознакомиться с разнообразными материалами по авиационной метеорологии и подборкой полезных ссылок на эту тему.

Сайт Метеоцентр.Азия посвящён разработке технологий оптимизации авиаметеорологического обслуживания, включая проектирование и перспективное создание нескольких автоматизированных авиаметеорологических систем:
- система выпуска высокодетальных прогностических карт явлений погоды для нижнего воздушного пространства по России и ближнему зарубежью;
- система верификации прогнозов TAF (выпускаемых синоптиками официальных АМСГ РФ и ближнего зарубежья) и AUTOTAF (выпускаемых сайтом Метеоцентр.Азия) - выявление ошибок, онлайн-сопоставление с фактической погодой METAR, автоматическое внесение коррективов в прогнозы при резком отклонении фактической погоды от прогноза, подсчёт оправдываемости прогнозов по элементам и в целом;
- система обработки, анализа и отображения авиаметеорологической информации для применения провайдерами метеорологической информации.


Погода в Колке - сегодня

Время (UTC), дата Ветер
(°,м/с) 
Видим.   Явления Облачность Т
(°С)
Тd
(°С)
f(%) Тe
(°С)
Pmin
(гПа)
dP
(гПа)
Po
(мм)
O2
(г/м3)
Тmin Tmax R s Состояние
почвы
00 23.06.17 тихо ()   н/о    н/о 
+8.8 +8.1 95 +9  1007.1  -0.8  755  293           
03 23.06.17 060 (СВ) н/о    н/о 
+10.2 +9.7 97 +12  1007.1  755  291           
06 23.06.17 080 (В) 10 км    ясно 
+14.4 +9.1 70 +15  1007.6  0.5  755  287  +8.2         
09 23.06.17 070 (В) н/о    н/о 
+14.5 +7.5 63 +15  1008.3  0.7  756  287           
12 23.06.17 130 (ЮВ) н/о    н/о 
+14.8 +7.3 61 +15  1008.5  0.2  756  288           
15 23.06.17 080 (В) н/о    н/о 
+15.9 +7.3 57 +16  1008.8  0.3  756  286           
18 23.06.17 тихо ()   10 км    3/0 верхняя 
[Cu med, cong|Ci]
+12.9 +7.3 69 +13  1008.7  -0.1  756  289    +16.4       
21 23.06.17 080 (В) н/о    н/о 
+10 +7 82 +11  1008.3  -0.4  756  292           
00 24.06.17 120 (ЮВ) н/о    н/о 
+13.4 +7.8 69 +13  1007.8  -0.5  755  289           
03 24.06.17 170 (Ю) н/о    н/о 
+13 +9.9 81 +14  1006.4  -1.4  754  287           
06 24.06.17 170 (Ю) 10 км    8/0 кучево-дожд. 
[Cb cap]
+14.3 +10.4 77 +16  1005.1  -1.3  753  286  +9.7         
09 24.06.17 180 (Ю) н/о    н/о 
+13.9 +9.3 74 +14  1004.5  -0.6  753  286           
12 24.06.17 190 (Ю) н/о    н/о 
+12.6 +10.8 89 +14  1003.3  -1.2  752  288           
15 24.06.17 240 (ЮЗ) н/о    н/о 
+15.2 +14.2 94 +23  1001.7  -1.5  751  283           
18 24.06.17 220 (ЮЗ) 4000 м  слаб. ливневой дождь  10/0 кучево-дожд. 
[Cb cap]
+15.7 +13.5 87 +22  1000.1  -1.6  750  282    +18.4     
21 24.06.17 250 (З) н/о    н/о 
+15.7 +13.5 87 +22  999.5  -0.6  749  282           
00 25.06.17 230 (ЮЗ) н/о    н/о 
+13.3 +12.4 94 +18  999.6  749  285           
03 25.06.17 240 (ЮЗ) н/о    н/о 
+12.7 +11.8 94 +17  1000  0.4  750  286           
06 25.06.17 270 (З) 5-10{12}  10 км    8/0 кучево-дожд. 
[Cb cap]
+15.7 +9.7 67 +16  1000.3  0.4  750  283  +12.7    0.3     
09 25.06.17 260 (З) 6-13{14}  н/о    н/о 
+15.6 +10.3 71 +17  1001  0.7  750  283           
12 25.06.17 250 (З) 5-12{14}  н/о    н/о 
+18.1 +7.1 49 +18  1001.4  0.4  751  282           
15 25.06.17 230 (ЮЗ) 5-10{14}  н/о    н/о 
+16.2 +8.1 59 +16  1001.2  -0.2  750  283           
21 25.06.17 220 (ЮЗ) 2{10}  н/о    н/о 
+12.5 +10.7 89 +15  999.1  -0.7  749  286           
00 26.06.17 230 (ЮЗ) 3{10}  н/о    н/о 
+11.4 +10.2 92 +12  998.8  -0.3  749  288           
03 26.06.17 210 (ЮЗ) н/о    н/о 
+11.3 +9.8 90 +13  998.6  -0.2  749  287           
Время (UTC), дата Ветер
(°,м/с) 
Видим.   Явления Облачность Т
(°С)
Тd
(°С)
f(%) Тe
(°С)
Pmin
(гПа)
dP
(гПа)
Po
(мм)
O2
(г/м3)
Тmin Tmax R s Состояние
почвы

Для получения пояснительной информации подведите курсор к названию столбца.

ПОГОДА в Колке - архив

Всё, что Вы хотите узнать о погоде в Колке - удобно и подробно!

Выберите нужную дату (начиная с 1 января 2015* года) и нажмите кнопку "Найти".
Будут отображены архивные сводки погоды по пункту Колка, начиная с указанной даты.


Отображать данные в формате CSV (для использования в таблицах Excel)


Внимание! Наш архив погоды предназначен исключительно для личного некоммерческого использования в познавательных целях. Если Вам необходимы официальные справки о состоянии погоды (для производственных, юридических, коммерческих и т.п. целей), обращайтесь в органы Росгидромета.

*Примечание: данная дата относится к архиву по метеостанциям СССР (Россия, СНГ, Балтия).
Архив по метеостанциям Зарубежной Европы и Азии (кроме Китая) хранится 10 дней, по другим регионам земного шара (Китай, Африка, Америка, Австралия, Океания) - 1 день.

Колка - район местоположения метеостанции


Название, широта, долгота, высота метеостанции:
Колка 57.8°ш. 22.6°д. 5 м над ур. моря [Латвия]

Дополнительная информация

В oтличие oт бoльшинства пoгoдных сайтoв мы публикуем пoдрoбную метеoинфoрмацию в детальнoм прoфессиoнальнoм фoрмате.

Характеристики температуры и влажнoсти вoздуха измеряются на высoте 2 м в тени вдали oт зданий и деревьев.
Скoрoсть ветра измеряется на высoте 10 м (на урoвне рoста челoвека скoрoсть ветра ниже в 1.5-2 раза). Если метеoстанция нахoдится в гoрoде или в лесу, тo скoрoсть ветра занижена на 2-4 м/с пo сравнению с oткрытым местoм. Скoрoсть ветра над акватoриями крупных рек и oзёр, а также на вершинах хoлмoв на 2-5 м/с выше, чем в oбычных услoвиях.
Атмoсфернoе давление в разных тoчках местнoсти мoжет значительнo oтличаться oт давления на метеoстанции, в зависимoсти oт услoвий рельефа (при пoдъёме на 10 м давление пoнижается примернo на 1 мм рт.ст.).